Location: Sebastopol
(38.4021°N, 122.8239°W)
Time: 15:03:15
(UTC+00:00)

Meteor 2-19 Rocket - Pass Details

Date: 29 October 2020
Orbit: 936 x 959 km, 82.5° (Epoch: 30 November)

Event Time Altitude Azimuth Distance (km) Brightness Sun altitude
Rises 13:39:19 0° 190° (S) 3,603 7.5 -11.5°
Reaches altitude 10° 13:41:49 10° 192° (SSW) 2,659 6.8 -11.0°
Maximum altitude 13:47:53 75° 278° (W) 976 4.4 -9.8°
Drops below altitude 10° 13:53:58 10° 4° (N) 2,661 6.7 -8.7°
Sets 13:56:28 0° 6° (N) 3,607 7.4 -8.2°
